GLOBALSTAR M084 [+]

Last updated on Fri Dec 29 2023 00:02:57 GMT+0000 (Coordinated Universal Time)

1 38040U 11080A 23362.43940244 -.00000068 00000+0 20060-3 0 9996 2 38040 51.9997 242.5322 0000811 55.4244 356.2563 12.62269726555166

Satellite not in orbit